Time,TemperatureF,DewpointF,PressureIn,WindDirection,WindDirectionDegrees,WindSpeedMPH,WindSpeedGustMPH,Humidity,HourlyPrecipIn,Conditions,Clouds,dailyrainin,SoftwareType,DateUTC
2013-03-23 00:00:00,30.3,22.7,29.50,West,274,2.1,4.6,73,0.00,CLR,SCT,0.03,WeatherDisplay:10.37,2013-03-23 04:00:00,
2013-03-23 00:05:00,30.2,22.6,29.50,WNW,294,2.0,4.6,73,0.00,RA,SCT,0.00,WeatherDisplay:10.37,2013-03-23 04:05:00,
2013-03-23 00:10:00,30.2,22.6,29.50,West,276,2.6,4.0,73,0.00,CLR,SCT,0.00,WeatherDisplay:10.37,2013-03-23 04:10:00,
2013-03-23 00:15:00,30.1,22.2,29.50,WNW,285,4.1,5.8,72,0.00,CLR,SCT,0.00,WeatherDisplay:10.37,2013-03-23 04:15:00,
2013-03-23 00:20:00,30.0,22.4,29.50,SW,228,1.6,2.3,73,0.00,CLR,SCT,0.00,WeatherDisplay:10.37,2013-03-23 04:20:00,
2013-03-23 00:25:00,29.9,22.3,29.50,West,274,2.0,3.5,73,0.00,CLR,SCT,0.00,WeatherDisplay:10.37,2013-03-23 04:25:00,
2013-03-23 00:30:00,29.8,22.2,29.50,West,281,1.2,3.5,73,0.00,CLR,SCT,0.00,WeatherDisplay:10.37,2013-03-23 04:30:00,
2013-03-23 00:35:00,29.8,22.2,29.50,West,277,1.9,4.6,73,0.00,CLR,SCT,0.00,WeatherDisplay:10.37,2013-03-23 04:35:00,
2013-03-23 00:40:00,29.9,22.3,29.50,NW,304,1.5,3.5,73,0.00,CLR,SCT,0.00,WeatherDisplay:10.37,2013-03-23 04:40:00,
2013-03-23 00:45:00,29.8,22.2,29.50,WNW,288,2.1,3.5,73,0.00,CLR,SCT,0.00,WeatherDisplay:10.37,2013-03-23 04:45:00,
2013-03-23 00:50:00,29.9,22.3,29.50,West,278,3.0,4.6,73,0.00,CLR,SCT,0.00,WeatherDisplay:10.37,2013-03-23 04:50:00,
2013-03-23 00:55:00,30.0,22.4,29.50,WNW,293,2.4,3.5,73,0.00,CLR,SCT,0.00,WeatherDisplay:10.37,2013-03-23 04:55:00,
2013-03-23 01:00:00,30.0,22.1,29.50,West,271,2.5,3.5,72,0.00,CLR,SCT,0.00,WeatherDisplay:10.37,2013-03-23 05:00:00,
2013-03-23 01:05:00,30.2,22.3,29.50,WNW,294,2.0,3.5,72,0.00,CLR,SCT,0.00,WeatherDisplay:10.37,2013-03-23 05:05:00,
2013-03-23 01:10:00,30.2,22.3,29.50,SSW,204,2.2,3.0,72,0.00,CLR,SCT,0.00,WeatherDisplay:10.37,2013-03-23 05:10:00,
2013-03-23 01:15:00,30.3,22.0,29.50,West,271,2.2,4.6,71,0.00,CLR,SCT,0.00,WeatherDisplay:10.37,2013-03-23 05:15:00,
2013-03-23 01:20:00,30.3,22.0,29.50,West,262,1.3,3.5,71,0.00,CLR,SCT,0.00,WeatherDisplay:10.37,2013-03-23 05:20:00,
2013-03-23 01:25:00,30.4,22.1,29.50,WNW,291,2.8,4.0,71,0.00,CLR,SCT,0.00,WeatherDisplay:10.37,2013-03-23 05:25:00,
2013-03-23 01:30:00,30.4,22.1,29.50,WSW,246,1.2,2.3,71,0.00,CLR,SCT,0.00,WeatherDisplay:10.37,2013-03-23 05:30:00,
2013-03-23 01:35:00,30.4,22.1,29.50,West,277,1.0,2.3,71,0.00,CLR,SCT,0.00,WeatherDisplay:10.37,2013-03-23 05:35:00,
2013-03-23 01:40:00,30.4,21.8,29.50,WNW,294,1.1,2.3,70,0.00,CLR,SCT,0.00,WeatherDisplay:10.37,2013-03-23 05:40:00,
2013-03-23 01:45:00,30.4,22.1,29.50,West,261,0.8,2.3,71,0.00,CLR,SCT,0.00,WeatherDisplay:10.37,2013-03-23 05:45:00,
2013-03-23 01:50:00,30.3,22.0,29.50,WSW,252,1.7,4.6,71,0.00,CLR,SCT,0.00,WeatherDisplay:10.37,2013-03-23 05:50:00,
2013-03-23 01:55:00,30.3,22.0,29.51,West,265,1.3,4.0,71,0.00,CLR,SCT,0.00,WeatherDisplay:10.37,2013-03-23 05:55:00,
2013-03-23 02:00:00,30.4,22.1,29.51,West,274,1.0,4.0,71,0.00,CLR,SCT,0.00,WeatherDisplay:10.37,2013-03-23 06:00:00,
2013-03-23 02:05:00,30.3,22.0,29.50,WNW,290,1.2,2.3,71,0.00,CLR,SCT,0.00,WeatherDisplay:10.37,2013-03-23 06:05:00,
2013-03-23 02:10:00,30.3,21.7,29.50,West,281,1.2,2.3,70,0.00,CLR,SCT,0.00,WeatherDisplay:10.37,2013-03-23 06:10:00,
2013-03-23 02:15:00,30.3,21.7,29.50,WNW,291,1.5,5.8,70,0.00,CLR,SCT,0.00,WeatherDisplay:10.37,2013-03-23 06:15:00,
2013-03-23 02:20:00,30.3,22.4,29.51,SW,232,1.4,3.5,72,0.00,CLR,SCT,0.00,WeatherDisplay:10.37,2013-03-23 06:20:00,
2013-03-23 02:25:00,30.2,21.9,29.50,SW,231,0.4,1.1,71,0.00,CLR,SCT,0.00,WeatherDisplay:10.37,2013-03-23 06:25:00,
2013-03-23 02:30:00,30.2,21.6,29.50,West,271,2.1,3.5,70,0.00,CLR,SCT,0.00,WeatherDisplay:10.37,2013-03-23 06:30:00,
2013-03-23 02:35:00,30.2,21.9,29.50,WSW,242,1.4,3.5,71,0.00,CLR,SCT,0.00,WeatherDisplay:10.37,2013-03-23 06:35:00,
2013-03-23 02:40:00,30.2,21.6,29.50,WNW,282,2.0,4.0,70,0.00,CLR,SCT,0.00,WeatherDisplay:10.37,2013-03-23 06:40:00,
2013-03-23 02:45:00,30.2,21.6,29.50,West,279,1.6,4.6,70,0.00,CLR,SCT,0.00,WeatherDisplay:10.37,2013-03-23 06:45:00,
2013-03-23 02:50:00,30.2,22.3,29.50,West,279,2.0,3.5,72,0.00,CLR,SCT,0.00,WeatherDisplay:10.37,2013-03-23 06:50:00,
2013-03-23 02:55:00,30.1,21.5,29.50,WNW,288,2.7,4.6,70,0.00,CLR,SCT,0.00,WeatherDisplay:10.37,2013-03-23 06:55:00,
2013-03-23 03:00:00,30.0,21.7,29.50,WSW,245,1.1,2.3,71,0.00,CLR,SCT,0.00,WeatherDisplay:10.37,2013-03-23 07:00:00,
2013-03-23 03:05:00,29.9,21.6,29.50,SSW,204,2.2,3.5,71,0.00,CLR,SCT,0.00,WeatherDisplay:10.37,2013-03-23 07:05:00,
2013-03-23 03:10:00,29.9,21.6,29.50,West,261,0.5,3.5,71,0.00,CLR,SCT,0.00,WeatherDisplay:10.37,2013-03-23 07:10:00,
2013-03-23 03:15:00,29.8,21.5,29.50,West,265,0.5,1.1,71,0.00,CLR,SCT,0.00,WeatherDisplay:10.37,2013-03-23 07:15:00,
2013-03-23 03:20:00,29.8,21.9,29.50,NW,311,0.8,2.3,72,0.00,CLR,SCT,0.00,WeatherDisplay:10.37,2013-03-23 07:20:00,
2013-03-23 03:25:00,29.7,22.1,29.49,NW,304,1.7,4.6,73,0.00,CLR,SCT,0.00,WeatherDisplay:10.37,2013-03-23 07:25:00,
2013-03-23 03:30:00,29.6,22.0,29.49,WNW,298,1.2,2.3,73,0.00,CLR,SCT,0.00,WeatherDisplay:10.37,2013-03-23 07:30:00,
2013-03-23 03:35:00,29.6,21.7,29.49,WNW,298,1.2,2.3,72,0.00,CLR,SCT,0.00,WeatherDisplay:10.37,2013-03-23 07:35:00,
2013-03-23 03:40:00,29.5,21.6,29.49,West,259,1.9,4.6,72,0.00,CLR,SCT,0.00,WeatherDisplay:10.37,2013-03-23 07:40:00,
2013-03-23 03:45:00,29.5,21.6,29.49,SW,234,1.0,2.3,72,0.00,CLR,SCT,0.00,WeatherDisplay:10.37,2013-03-23 07:45:00,
2013-03-23 03:50:00,29.4,21.5,29.49,West,275,0.0,3.5,72,0.00,CLR,SCT,0.00,WeatherDisplay:10.37,2013-03-23 07:50:00,
2013-03-23 03:55:00,29.3,21.4,29.48,West,265,3.1,4.6,72,0.00,CLR,SCT,0.00,WeatherDisplay:10.37,2013-03-23 07:55:00,
2013-03-23 04:00:00,29.3,21.7,29.49,WSW,257,2.7,4.6,73,0.00,CLR,SCT,0.00,WeatherDisplay:10.37,2013-03-23 08:00:00,
2013-03-23 04:05:00,29.3,21.7,29.48,West,261,3.2,4.6,73,0.00,CLR,SCT,0.00,WeatherDisplay:10.37,2013-03-23 08:05:00,
2013-03-23 04:10:00,29.3,22.0,29.48,WNW,290,1.3,5.0,74,0.00,CLR,SCT,0.00,WeatherDisplay:10.37,2013-03-23 08:10:00,
2013-03-23 04:15:00,29.1,21.8,29.48,West,273,1.4,3.5,74,0.00,CLR,SCT,0.00,WeatherDisplay:10.37,2013-03-23 08:15:00,
2013-03-23 04:20:00,29.0,21.7,29.48,WSW,251,1.7,3.5,74,0.00,CLR,SCT,0.00,WeatherDisplay:10.37,2013-03-23 08:20:00,
2013-03-23 04:25:00,28.9,21.7,29.48,WNW,301,0.4,2.0,74,0.00,CLR,SCT,0.00,WeatherDisplay:10.37,2013-03-23 08:25:00,
2013-03-23 04:30:00,28.7,21.5,29.48,WSW,243,0.8,2.3,74,0.00,CLR,SCT,0.00,WeatherDisplay:10.37,2013-03-23 08:30:00,
2013-03-23 04:35:00,28.6,21.7,29.48,West,267,0.5,3.5,75,0.00,CLR,SCT,0.00,WeatherDisplay:10.37,2013-03-23 08:35:00,
2013-03-23 04:40:00,28.5,21.6,29.48,WSW,240,1.3,4.0,75,0.00,CLR,SCT,0.00,WeatherDisplay:10.37,2013-03-23 08:40:00,
2013-03-23 04:45:00,28.6,21.7,29.48,SW,229,1.0,2.3,75,0.00,CLR,SCT,0.00,WeatherDisplay:10.37,2013-03-23 08:45:00,
2013-03-23 04:50:00,28.4,21.5,29.48,SW,228,2.6,4.0,75,0.00,CLR,SCT,0.00,WeatherDisplay:10.37,2013-03-23 08:50:00,
2013-03-23 04:55:00,28.3,21.4,29.48,SSW,209,3.6,5.8,75,0.00,CLR,SCT,0.00,WeatherDisplay:10.37,2013-03-23 08:55:00,
2013-03-23 05:00:00,28.4,21.5,29.48,West,277,1.4,3.5,75,0.00,CLR,SCT,0.00,WeatherDisplay:10.37,2013-03-23 09:00:00,
2013-03-23 05:05:00,28.4,21.5,29.48,WNW,290,2.6,3.5,75,0.00,CLR,SCT,0.00,WeatherDisplay:10.37,2013-03-23 09:05:00,
2013-03-23 05:10:00,28.5,21.6,29.48,WSW,242,4.5,5.8,75,0.00,CLR,SCT,0.00,WeatherDisplay:10.37,2013-03-23 09:10:00,
2013-03-23 05:15:00,28.6,21.7,29.48,West,268,2.9,4.6,75,0.00,CLR,SCT,0.00,WeatherDisplay:10.37,2013-03-23 09:15:00,
2013-03-23 05:20:00,28.7,21.8,29.48,West,273,1.9,3.5,75,0.00,CLR,SCT,0.00,WeatherDisplay:10.37,2013-03-23 09:20:00,
2013-03-23 05:25:00,28.7,21.8,29.48,West,277,1.4,3.5,75,0.00,CLR,SCT,0.00,WeatherDisplay:10.37,2013-03-23 09:25:00,
2013-03-23 05:30:00,28.7,21.8,29.48,SW,231,4.3,6.9,75,0.00,CLR,SCT,0.00,WeatherDisplay:10.37,2013-03-23 09:30:00,
2013-03-23 05:35:00,28.7,21.8,29.49,West,277,1.2,2.3,75,0.00,CLR,SCT,0.00,WeatherDisplay:10.37,2013-03-23 09:35:00,
2013-03-23 05:40:00,28.7,21.8,29.49,WNW,283,1.7,4.6,75,0.00,CLR,SCT,0.00,WeatherDisplay:10.37,2013-03-23 09:40:00,
2013-03-23 05:45:00,28.8,21.9,29.49,West,277,1.4,3.5,75,0.00,CLR,SCT,0.00,WeatherDisplay:10.37,2013-03-23 09:45:00,
2013-03-23 05:50:00,28.8,21.9,29.48,WNW,292,3.5,7.0,75,0.00,CLR,SCT,0.00,WeatherDisplay:10.37,2013-03-23 09:50:00,
2013-03-23 05:55:00,28.9,22.0,29.49,WNW,303,2.8,4.6,75,0.00,CLR,SCT,0.00,WeatherDisplay:10.37,2013-03-23 09:55:00,
2013-03-23 06:00:00,29.0,21.7,29.48,West,266,4.3,5.8,74,0.00,CLR,SCT,0.00,WeatherDisplay:10.37,2013-03-23 10:00:00,
2013-03-23 06:05:00,29.1,21.8,29.49,SSE,157,1.9,4.6,74,0.00,CLR,SCT,0.00,WeatherDisplay:10.37,2013-03-23 10:05:00,
2013-03-23 06:10:00,29.1,22.2,29.49,WSW,242,1.3,3.5,75,0.00,CLR,SCT,0.00,WeatherDisplay:10.37,2013-03-23 10:10:00,
2013-03-23 06:15:00,29.0,22.1,29.49,West,267,2.3,3.5,75,0.00,CLR,SCT,0.00,WeatherDisplay:10.37,2013-03-23 10:15:00,
2013-03-23 06:20:00,29.0,21.7,29.49,WSW,257,0.6,2.3,74,0.00,CLR,SCT,0.00,WeatherDisplay:10.37,2013-03-23 10:20:00,
2013-03-23 06:25:00,28.8,21.9,29.49,SW,229,0.5,3.5,75,0.00,CLR,SCT,0.00,WeatherDisplay:10.37,2013-03-23 10:25:00,
2013-03-23 06:30:00,28.7,21.8,29.49,WSW,246,0.6,4.0,75,0.00,CLR,SCT,0.00,WeatherDisplay:10.37,2013-03-23 10:30:00,
2013-03-23 06:35:00,28.6,21.7,29.49,SW,227,1.0,3.5,75,0.00,CLR,SCT,0.00,WeatherDisplay:10.37,2013-03-23 10:35:00,
2013-03-23 06:40:00,28.5,21.6,29.49,West,272,2.0,4.6,75,0.00,CLR,SCT,0.00,WeatherDisplay:10.37,2013-03-23 10:40:00,
2013-03-23 06:45:00,28.6,21.7,29.49,West,259,0.4,1.1,75,0.00,CLR,SCT,0.00,WeatherDisplay:10.37,2013-03-23 10:45:00,
2013-03-23 06:50:00,28.5,21.6,29.49,West,267,2.0,4.6,75,0.00,CLR,SCT,0.00,WeatherDisplay:10.37,2013-03-23 10:50:00,
2013-03-23 06:55:00,28.5,21.6,29.49,West,275,1.6,3.5,75,0.00,CLR,SCT,0.00,WeatherDisplay:10.37,2013-03-23 10:55:00,
2013-03-23 07:00:00,28.4,21.5,29.49,WNW,288,0.6,2.3,75,0.00,CLR,SCT,0.00,WeatherDisplay:10.37,2013-03-23 11:00:00,
2013-03-23 07:05:00,28.3,21.4,29.49,SW,227,1.0,3.5,75,0.00,CLR,SCT,0.00,WeatherDisplay:10.37,2013-03-23 11:05:00,
2013-03-23 07:10:00,28.4,21.5,29.49,SW,233,1.9,4.6,75,0.00,CLR,SCT,0.00,WeatherDisplay:10.37,2013-03-23 11:10:00,
2013-03-23 07:15:00,28.4,21.5,29.49,NW,310,1.9,4.6,75,0.00,CLR,SCT,0.00,WeatherDisplay:10.37,2013-03-23 11:15:00,
2013-03-23 07:20:00,28.3,21.4,29.49,NW,309,0.7,2.3,75,0.00,CLR,SCT,0.00,WeatherDisplay:10.37,2013-03-23 11:20:00,
2013-03-23 07:25:00,28.2,21.6,29.49,WNW,295,2.1,4.0,76,0.00,CLR,SCT,0.00,WeatherDisplay:10.37,2013-03-23 11:25:00,
2013-03-23 07:30:00,28.3,21.4,29.49,WNW,291,2.6,4.6,75,0.00,CLR,SCT,0.00,WeatherDisplay:10.37,2013-03-23 11:30:00,
2013-03-23 07:35:00,28.4,21.5,29.49,East,80,0.6,2.3,75,0.00,CLR,SCT,0.00,WeatherDisplay:10.37,2013-03-23 11:35:00,
2013-03-23 07:40:00,28.4,21.5,29.50,West,281,2.7,4.6,75,0.00,CLR,SCT,0.00,WeatherDisplay:10.37,2013-03-23 11:40:00,
2013-03-23 07:45:00,28.6,21.7,29.50,NW,310,1.9,4.6,75,0.00,CLR,SCT,0.00,WeatherDisplay:10.37,2013-03-23 11:45:00,
2013-03-23 07:50:00,28.7,21.8,29.50,NW,304,0.3,1.1,75,0.00,CLR,SCT,0.00,WeatherDisplay:10.37,2013-03-23 11:50:00,
2013-03-23 07:55:00,28.8,21.6,29.50,NW,321,2.7,4.6,74,0.00,CLR,SCT,0.00,WeatherDisplay:10.37,2013-03-23 11:55:00,
2013-03-23 08:00:00,28.7,21.8,29.50,North,355,1.0,2.3,75,0.00,CLR,SCT,0.00,WeatherDisplay:10.37,2013-03-23 12:00:00,
2013-03-23 08:05:00,28.8,21.6,29.49,West,276,1.0,4.6,74,0.00,CLR,SCT,0.00,WeatherDisplay:10.37,2013-03-23 12:05:00,
2013-03-23 08:10:00,29.2,21.9,29.49,SW,227,3.2,4.0,74,0.00,CLR,SCT,0.00,WeatherDisplay:10.37,2013-03-23 12:10:00,
2013-03-23 08:15:00,29.5,22.2,29.49,WSW,253,0.3,2.0,74,0.00,CLR,SCT,0.00,WeatherDisplay:10.37,2013-03-23 12:15:00,
2013-03-23 08:20:00,29.8,21.9,29.49,West,264,2.4,4.6,72,0.00,CLR,SCT,0.00,WeatherDisplay:10.37,2013-03-23 12:20:00,
2013-03-23 08:25:00,30.2,22.6,29.49,West,274,0.8,2.0,73,0.00,CLR,SCT,0.00,WeatherDisplay:10.37,2013-03-23 12:25:00,
2013-03-23 08:30:00,30.3,22.4,29.49,West,276,2.4,3.5,72,0.00,CLR,SCT,0.00,WeatherDisplay:10.37,2013-03-23 12:30:00,
2013-03-23 08:35:00,30.6,22.6,29.49,SW,223,3.6,6.0,72,0.00,CLR,SCT,0.00,WeatherDisplay:10.37,2013-03-23 12:35:00,
2013-03-23 08:40:00,30.8,22.5,29.49,South,188,1.5,3.5,71,0.00,CLR,SCT,0.00,WeatherDisplay:10.37,2013-03-23 12:40:00,
2013-03-23 08:45:00,31.2,22.9,29.49,NW,305,3.0,4.6,71,0.00,CLR,SCT,0.00,WeatherDisplay:10.37,2013-03-23 12:45:00,
2013-03-23 08:50:00,31.5,22.8,29.49,West,275,2.4,5.8,70,0.00,CLR,SCT,0.00,WeatherDisplay:10.37,2013-03-23 12:50:00,
2013-03-23 08:55:00,31.7,23.0,29.49,WSW,237,0.6,2.3,70,0.00,CLR,SCT,0.00,WeatherDisplay:10.37,2013-03-23 12:55:00,
2013-03-23 09:00:00,31.9,22.9,29.49,WNW,297,1.8,3.5,69,0.00,CLR,SCT,0.00,WeatherDisplay:10.37,2013-03-23 13:00:00,
2013-03-23 09:05:00,31.8,22.4,29.49,SW,236,0.7,4.6,68,0.00,CLR,SCT,0.00,WeatherDisplay:10.37,2013-03-23 13:05:00,
2013-03-23 09:10:00,31.9,22.9,29.49,SW,225,1.1,2.3,69,0.00,CLR,SCT,0.00,WeatherDisplay:10.37,2013-03-23 13:10:00,
2013-03-23 09:15:00,32.0,23.3,29.49,WNW,286,1.4,4.0,70,0.00,CLR,SCT,0.00,WeatherDisplay:10.37,2013-03-23 13:15:00,
2013-03-23 09:20:00,32.1,22.7,29.49,SW,229,4.2,5.8,68,0.00,CLR,SCT,0.00,WeatherDisplay:10.37,2013-03-23 13:20:00,
2013-03-23 09:25:00,32.5,22.8,29.49,WNW,285,2.3,4.6,67,0.00,CLR,SCT,0.00,WeatherDisplay:10.37,2013-03-23 13:25:00,
2013-03-23 09:30:00,32.6,22.8,29.48,WNW,296,2.1,4.6,67,0.00,CLR,SCT,0.00,WeatherDisplay:10.37,2013-03-23 13:30:00,
2013-03-23 09:35:00,33.1,23.0,29.48,SSE,166,2.9,4.6,66,0.00,CLR,SCT,0.00,WeatherDisplay:10.37,2013-03-23 13:35:00,
2013-03-23 09:40:00,33.8,23.6,29.48,WSW,251,2.7,4.0,66,0.00,CLR,SCT,0.00,WeatherDisplay:10.37,2013-03-23 13:40:00,
2013-03-23 09:45:00,34.0,23.1,29.48,WSW,246,1.9,2.3,64,0.00,CLR,SCT,0.00,WeatherDisplay:10.37,2013-03-23 13:45:00,
2013-03-23 09:50:00,34.0,22.7,29.48,West,262,3.4,8.1,63,0.00,CLR,SCT,0.00,WeatherDisplay:10.37,2013-03-23 13:50:00,
2013-03-23 09:55:00,33.9,22.6,29.48,WSW,248,2.8,6.9,63,0.00,CLR,SCT,0.00,WeatherDisplay:10.37,2013-03-23 13:55:00,
2013-03-23 10:00:00,34.3,23.0,29.48,SW,232,3.5,5.8,63,0.00,CLR,SCT,0.00,WeatherDisplay:10.37,2013-03-23 14:00:00,
2013-03-23 10:05:00,34.5,23.2,29.48,WNW,290,4.9,6.9,63,0.00,CLR,SCT,0.00,WeatherDisplay:10.37,2013-03-23 14:05:00,
2013-03-23 10:10:00,34.3,23.0,29.48,NW,311,5.8,8.1,63,0.00,CLR,SCT,0.00,WeatherDisplay:10.37,2013-03-23 14:10:00,
2013-03-23 10:15:00,34.1,22.8,29.48,SW,229,3.5,6.0,63,0.00,CLR,SCT,0.00,WeatherDisplay:10.37,2013-03-23 14:15:00,
2013-03-23 10:20:00,34.5,23.2,29.47,West,279,3.4,5.8,63,0.00,CLR,SCT,0.00,WeatherDisplay:10.37,2013-03-23 14:20:00,
2013-03-23 10:25:00,34.6,22.5,29.48,WNW,298,3.9,4.6,61,0.00,CLR,SCT,0.00,WeatherDisplay:10.37,2013-03-23 14:25:00,
2013-03-23 10:30:00,34.5,22.4,29.47,West,278,4.5,5.8,61,0.00,CLR,SCT,0.00,WeatherDisplay:10.37,2013-03-23 14:30:00,
2013-03-23 10:35:00,34.7,23.0,29.47,West,266,4.1,6.9,62,0.00,CLR,SCT,0.00,WeatherDisplay:10.37,2013-03-23 14:35:00,
2013-03-23 10:40:00,35.3,22.8,29.47,West,281,3.2,9.2,60,0.00,CLR,SCT,0.00,WeatherDisplay:10.37,2013-03-23 14:40:00,
2013-03-23 10:45:00,35.7,22.4,29.47,WNW,293,6.4,9.2,58,0.00,CLR,SCT,0.00,WeatherDisplay:10.37,2013-03-23 14:45:00,
2013-03-23 10:50:00,35.5,23.0,29.47,West,278,3.5,10.0,60,0.00,CLR,SCT,0.00,WeatherDisplay:10.37,2013-03-23 14:50:00,
2013-03-23 10:55:00,35.4,22.5,29.47,West,274,4.2,5.8,59,0.00,CLR,SCT,0.00,WeatherDisplay:10.37,2013-03-23 14:55:00,
2013-03-23 11:00:00,35.2,22.7,29.47,WNW,292,1.7,2.3,60,0.00,CLR,SCT,0.00,WeatherDisplay:10.37,2013-03-23 15:00:00,
2013-03-23 11:05:00,35.1,23.0,29.48,West,277,3.0,6.9,61,0.00,CLR,SCT,0.00,WeatherDisplay:10.37,2013-03-23 15:05:00,
2013-03-23 11:10:00,35.1,23.0,29.48,NW,304,3.3,5.8,61,0.00,CLR,SCT,0.00,WeatherDisplay:10.37,2013-03-23 15:10:00,
2013-03-23 11:15:00,35.6,23.9,29.47,WNW,295,2.0,7.0,62,0.00,CLR,SCT,0.00,WeatherDisplay:10.37,2013-03-23 15:15:00,
2013-03-23 11:20:00,36.8,23.8,29.48,WNW,291,2.2,8.1,59,0.00,CLR,SCT,0.00,WeatherDisplay:10.37,2013-03-23 15:20:00,
2013-03-23 11:25:00,37.3,23.4,29.48,South,176,2.5,5.8,57,0.00,CLR,SCT,0.00,WeatherDisplay:10.37,2013-03-23 15:25:00,
2013-03-23 11:30:00,36.8,22.6,29.48,NW,309,5.0,5.8,56,0.00,CLR,SCT,0.00,WeatherDisplay:10.37,2013-03-23 15:30:00,
2013-03-23 11:35:00,36.0,22.6,29.48,WNW,283,5.2,9.0,58,0.00,CLR,SCT,0.00,WeatherDisplay:10.37,2013-03-23 15:35:00,
2013-03-23 11:40:00,36.2,23.2,29.48,WSW,257,3.1,6.9,59,0.00,CLR,SCT,0.00,WeatherDisplay:10.37,2013-03-23 15:40:00,
2013-03-23 11:45:00,36.2,22.0,29.47,SW,229,5.8,6.9,56,0.00,CLR,SCT,0.00,WeatherDisplay:10.37,2013-03-23 15:45:00,
2013-03-23 11:50:00,36.8,22.6,29.48,West,281,6.2,12.7,56,0.00,CLR,SCT,0.00,WeatherDisplay:10.37,2013-03-23 15:50:00,
2013-03-23 11:55:00,37.0,23.2,29.47,WSW,251,3.3,9.0,57,0.00,CLR,SCT,0.00,WeatherDisplay:10.37,2013-03-23 15:55:00,
2013-03-23 12:00:00,37.6,23.3,29.47,WNW,284,4.9,6.9,56,0.00,CLR,SCT,0.00,WeatherDisplay:10.37,2013-03-23 16:00:00,
2013-03-23 12:05:00,38.3,23.1,29.47,NW,309,5.0,6.9,54,0.00,CLR,SCT,0.00,WeatherDisplay:10.37,2013-03-23 16:05:00,
2013-03-23 12:10:00,37.3,22.6,29.48,WNW,302,4.4,6.0,55,0.00,CLR,SCT,0.00,WeatherDisplay:10.37,2013-03-23 16:10:00,
2013-03-23 12:15:00,36.8,21.7,29.48,West,268,5.4,9.2,54,0.00,CLR,SCT,0.00,WeatherDisplay:10.37,2013-03-23 16:15:00,
2013-03-23 12:20:00,36.6,22.8,29.48,WNW,295,4.7,5.8,57,0.00,CLR,SCT,0.00,WeatherDisplay:10.37,2013-03-23 16:20:00,
2013-03-23 12:25:00,37.2,22.1,29.48,WNW,294,4.3,5.8,54,0.00,CLR,SCT,0.00,WeatherDisplay:10.37,2013-03-23 16:25:00,
2013-03-23 12:30:00,37.8,22.2,29.48,West,271,5.2,8.1,53,0.00,CLR,SCT,0.00,WeatherDisplay:10.37,2013-03-23 16:30:00,
2013-03-23 12:35:00,37.8,22.6,29.47,NNE,21,3.9,5.8,54,0.00,CLR,SCT,0.00,WeatherDisplay:10.37,2013-03-23 16:35:00,
2013-03-23 12:40:00,37.8,22.6,29.47,NW,320,4.4,7.0,54,0.00,CLR,SCT,0.00,WeatherDisplay:10.37,2013-03-23 16:40:00,
2013-03-23 12:45:00,38.3,21.3,29.47,WNW,286,6.4,11.5,50,0.00,CLR,SCT,0.00,WeatherDisplay:10.37,2013-03-23 16:45:00,
2013-03-23 12:50:00,37.8,20.3,29.48,WNW,292,4.9,6.9,49,0.00,CLR,SCT,0.00,WeatherDisplay:10.37,2013-03-23 16:50:00,
2013-03-23 12:55:00,37.2,20.2,29.48,West,269,6.9,12.7,50,0.00,CLR,SCT,0.00,WeatherDisplay:10.37,2013-03-23 16:55:00,
2013-03-23 13:00:00,37.6,21.5,29.48,West,278,5.9,9.2,52,0.00,CLR,SCT,0.00,WeatherDisplay:10.37,2013-03-23 17:00:00,
2013-03-23 13:05:00,37.6,20.1,29.47,WNW,296,5.8,11.5,49,0.00,CLR,SCT,0.00,WeatherDisplay:10.37,2013-03-23 17:05:00,
2013-03-23 13:10:00,37.6,20.6,29.48,NW,315,4.7,8.0,50,0.00,CLR,SCT,0.00,WeatherDisplay:10.37,2013-03-23 17:10:00,
2013-03-23 13:15:00,37.6,19.7,29.47,WNW,303,4.0,10.4,48,0.00,CLR,SCT,0.00,WeatherDisplay:10.37,2013-03-23 17:15:00,
2013-03-23 13:20:00,37.5,20.1,29.48,West,273,4.1,6.9,49,0.00,CLR,SCT,0.00,WeatherDisplay:10.37,2013-03-23 17:20:00,
2013-03-23 13:25:00,37.7,19.8,29.48,WNW,300,5.7,9.2,48,0.00,CLR,SCT,0.00,WeatherDisplay:10.37,2013-03-23 17:25:00,
2013-03-23 13:30:00,38.4,21.4,29.48,NW,325,5.6,8.0,50,0.00,CLR,SCT,0.00,WeatherDisplay:10.37,2013-03-23 17:30:00,
2013-03-23 13:35:00,38.4,19.9,29.48,WNW,286,3.9,6.9,47,0.00,CLR,SCT,0.00,WeatherDisplay:10.37,2013-03-23 17:35:00,
2013-03-23 13:40:00,38.8,20.3,29.47,WNW,298,6.5,11.5,47,0.00,CLR,SCT,0.00,WeatherDisplay:10.37,2013-03-23 17:40:00,
2013-03-23 13:45:00,39.1,19.0,29.47,NW,309,5.0,9.2,44,0.00,CLR,SCT,0.00,WeatherDisplay:10.37,2013-03-23 17:45:00,
2013-03-23 13:50:00,38.4,19.4,29.47,NW,310,5.1,10.4,46,0.00,CLR,SCT,0.00,WeatherDisplay:10.37,2013-03-23 17:50:00,
2013-03-23 13:55:00,38.7,19.2,29.47,NW,323,4.2,6.0,45,0.00,CLR,SCT,0.00,WeatherDisplay:10.37,2013-03-23 17:55:00,
2013-03-23 14:00:00,38.9,19.3,29.47,West,278,5.5,9.2,45,0.00,CLR,SCT,0.00,WeatherDisplay:10.37,2013-03-23 18:00:00,
2013-03-23 14:05:00,39.6,19.5,29.47,NW,317,5.2,9.2,44,0.00,CLR,SCT,0.00,WeatherDisplay:10.37,2013-03-23 18:05:00,
2013-03-23 14:10:00,40.0,19.3,29.46,West,280,4.7,11.5,43,0.00,CLR,SCT,0.00,WeatherDisplay:10.37,2013-03-23 18:10:00,
2013-03-23 14:15:00,39.6,19.5,29.46,NW,304,6.9,11.5,44,0.00,CLR,SCT,0.00,WeatherDisplay:10.37,2013-03-23 18:15:00,
2013-03-23 14:20:00,39.9,18.1,29.45,NW,325,5.5,11.5,41,0.00,CLR,SCT,0.00,WeatherDisplay:10.37,2013-03-23 18:20:00,
2013-03-23 14:25:00,41.3,21.0,29.46,WNW,294,4.5,9.2,44,0.00,CLR,SCT,0.00,WeatherDisplay:10.37,2013-03-23 18:25:00,
2013-03-23 14:30:00,41.0,19.6,29.46,WNW,299,5.1,8.0,42,0.00,CLR,SCT,0.00,WeatherDisplay:10.37,2013-03-23 18:30:00,
2013-03-23 14:35:00,40.8,17.7,29.46,WNW,295,6.1,10.0,39,0.00,CLR,SCT,0.00,WeatherDisplay:10.37,2013-03-23 18:35:00,
2013-03-23 14:40:00,41.2,20.4,29.45,NNW,332,5.7,11.0,43,0.00,CLR,SCT,0.00,WeatherDisplay:10.37,2013-03-23 18:40:00,
2013-03-23 14:45:00,41.3,19.3,29.45,WNW,282,7.1,11.5,41,0.00,CLR,SCT,0.00,WeatherDisplay:10.37,2013-03-23 18:45:00,
2013-03-23 14:50:00,41.3,18.8,29.45,NW,322,5.2,6.9,40,0.00,CLR,SCT,0.00,WeatherDisplay:10.37,2013-03-23 18:50:00,
2013-03-23 14:55:00,40.4,17.4,29.45,NW,305,5.3,8.1,39,0.00,CLR,SCT,0.00,WeatherDisplay:10.37,2013-03-23 18:55:00,
2013-03-23 15:00:00,40.3,19.0,29.45,WNW,300,5.9,9.2,42,0.00,CLR,SCT,0.00,WeatherDisplay:10.37,2013-03-23 19:00:00,
2013-03-23 15:05:00,40.4,16.8,29.44,NW,314,9.9,13.0,38,0.00,CLR,SCT,0.00,WeatherDisplay:10.37,2013-03-23 19:05:00,
2013-03-23 15:10:00,40.9,17.2,29.45,West,279,5.4,10.4,38,0.00,CLR,SCT,0.00,WeatherDisplay:10.37,2013-03-23 19:10:00,
2013-03-23 15:15:00,41.3,18.8,29.44,SE,128,4.2,8.0,40,0.00,CLR,SCT,0.00,WeatherDisplay:10.37,2013-03-23 19:15:00,
2013-03-23 15:20:00,41.5,17.7,29.44,SE,142,3.9,6.9,38,0.00,CLR,SCT,0.00,WeatherDisplay:10.37,2013-03-23 19:20:00,
2013-03-23 15:25:00,40.4,16.1,29.44,WNW,302,7.3,11.0,37,0.00,CLR,SCT,0.00,WeatherDisplay:10.37,2013-03-23 19:25:00,
2013-03-23 15:30:00,40.2,18.3,29.44,South,178,6.9,11.5,41,0.00,CLR,SCT,0.00,WeatherDisplay:10.37,2013-03-23 19:30:00,
2013-03-23 15:35:00,40.2,17.8,29.44,WNW,294,5.9,10.4,40,0.00,CLR,SCT,0.00,WeatherDisplay:10.37,2013-03-23 19:35:00,
2013-03-23 15:40:00,40.2,17.2,29.44,West,279,7.5,11.5,39,0.00,CLR,SCT,0.00,WeatherDisplay:10.37,2013-03-23 19:40:00,
2013-03-23 15:45:00,40.3,17.3,29.44,NW,326,10.6,19.6,39,0.00,CLR,SCT,0.00,WeatherDisplay:10.37,2013-03-23 19:45:00,
2013-03-23 15:50:00,39.9,17.5,29.44,NNE,13,6.6,13.8,40,0.00,CLR,SCT,0.00,WeatherDisplay:10.37,2013-03-23 19:50:00,
2013-03-23 15:55:00,39.9,17.5,29.44,South,185,6.6,10.4,40,0.00,CLR,SCT,0.00,WeatherDisplay:10.37,2013-03-23 19:55:00,
2013-03-23 16:00:00,40.0,17.0,29.44,NNW,332,5.7,10.4,39,0.00,CLR,SCT,0.00,WeatherDisplay:10.37,2013-03-23 20:00:00,
2013-03-23 16:05:00,40.0,17.0,29.45,NW,304,6.9,10.4,39,0.00,CLR,SCT,0.00,WeatherDisplay:10.37,2013-03-23 20:05:00,
2013-03-23 16:10:00,40.4,17.4,29.44,West,271,9.0,11.5,39,0.00,CLR,SCT,0.00,WeatherDisplay:10.37,2013-03-23 20:10:00,
2013-03-23 16:15:00,40.7,18.8,29.44,NW,304,6.0,13.8,41,0.00,CLR,SCT,0.00,WeatherDisplay:10.37,2013-03-23 20:15:00,
2013-03-23 16:20:00,40.1,18.3,29.44,WNW,294,6.2,11.5,41,0.00,CLR,SCT,0.00,WeatherDisplay:10.37,2013-03-23 20:20:00,
2013-03-23 16:25:00,40.0,17.6,29.44,NW,319,7.1,11.5,40,0.00,CLR,SCT,0.00,WeatherDisplay:10.37,2013-03-23 20:25:00,
2013-03-23 16:30:00,39.9,17.5,29.44,WNW,291,5.4,11.5,40,0.00,CLR,SCT,0.00,WeatherDisplay:10.37,2013-03-23 20:30:00,
2013-03-23 16:35:00,39.8,18.0,29.44,WNW,285,6.7,9.2,41,0.00,CLR,SCT,0.00,WeatherDisplay:10.37,2013-03-23 20:35:00,
2013-03-23 16:40:00,40.2,19.5,29.44,North,355,6.1,9.2,43,0.00,CLR,SCT,0.00,WeatherDisplay:10.37,2013-03-23 20:40:00,
2013-03-23 16:45:00,40.1,17.7,29.44,WNW,298,7.7,11.5,40,0.00,CLR,SCT,0.00,WeatherDisplay:10.37,2013-03-23 20:45:00,
2013-03-23 16:50:00,39.9,18.6,29.44,West,267,7.4,11.5,42,0.00,CLR,SCT,0.00,WeatherDisplay:10.37,2013-03-23 20:50:00,
2013-03-23 16:55:00,39.6,16.6,29.44,WNW,302,7.8,12.7,39,0.00,CLR,SCT,0.00,WeatherDisplay:10.37,2013-03-23 20:55:00,
2013-03-23 17:00:00,39.6,17.2,29.44,NW,307,7.7,13.8,40,0.00,CLR,SCT,0.00,WeatherDisplay:10.37,2013-03-23 21:00:00,
2013-03-23 17:05:00,39.7,18.5,29.44,ESE,103,5.6,13.0,42,0.00,CLR,SCT,0.00,WeatherDisplay:10.37,2013-03-23 21:05:00,
2013-03-23 17:10:00,39.7,18.5,29.45,West,279,6.6,9.2,42,0.00,CLR,SCT,0.00,WeatherDisplay:10.37,2013-03-23 21:10:00,
2013-03-23 17:15:00,39.6,18.9,29.44,NW,306,7.5,10.4,43,0.00,CLR,SCT,0.00,WeatherDisplay:10.37,2013-03-23 21:15:00,
2013-03-23 17:20:00,39.3,18.6,29.45,NW,311,6.6,8.0,43,0.00,CLR,SCT,0.00,WeatherDisplay:10.37,2013-03-23 21:20:00,
2013-03-23 17:25:00,39.3,19.2,29.45,NW,309,4.0,10.4,44,0.00,CLR,SCT,0.00,WeatherDisplay:10.37,2013-03-23 21:25:00,
2013-03-23 17:30:00,39.3,18.6,29.45,West,279,8.7,11.5,43,0.00,CLR,SCT,0.00,WeatherDisplay:10.37,2013-03-23 21:30:00,
2013-03-23 17:35:00,39.0,18.4,29.45,West,279,7.4,22.0,43,0.00,CLR,SCT,0.00,WeatherDisplay:10.37,2013-03-23 21:35:00,
2013-03-23 17:40:00,38.9,18.8,29.45,SW,232,6.2,12.7,44,0.00,CLR,SCT,0.00,WeatherDisplay:10.37,2013-03-23 21:40:00,
2013-03-23 17:45:00,38.8,18.7,29.45,WNW,284,4.4,9.2,44,0.00,CLR,SCT,0.00,WeatherDisplay:10.37,2013-03-23 21:45:00,
2013-03-23 17:50:00,38.7,19.7,29.45,WNW,296,6.0,9.2,46,0.00,CLR,SCT,0.00,WeatherDisplay:10.37,2013-03-23 21:50:00,
2013-03-23 17:55:00,38.6,18.0,29.46,NW,306,4.4,13.8,43,0.00,CLR,SCT,0.00,WeatherDisplay:10.37,2013-03-23 21:55:00,
2013-03-23 18:00:00,38.6,19.1,29.46,WSW,248,6.8,11.5,45,0.00,CLR,SCT,0.00,WeatherDisplay:10.37,2013-03-23 22:00:00,
2013-03-23 18:05:00,38.3,18.3,29.46,NW,306,7.2,9.2,44,0.00,CLR,SCT,0.00,WeatherDisplay:10.37,2013-03-23 22:05:00,
2013-03-23 18:10:00,38.0,19.0,29.47,West,276,5.9,10.4,46,0.00,CLR,SCT,0.00,WeatherDisplay:10.37,2013-03-23 22:10:00,
2013-03-23 18:15:00,38.0,18.5,29.47,West,278,5.0,11.5,45,0.00,CLR,SCT,0.00,WeatherDisplay:10.37,2013-03-23 22:15:00,
2013-03-23 18:20:00,37.9,18.4,29.47,WNW,282,5.7,12.7,45,0.00,CLR,SCT,0.00,WeatherDisplay:10.37,2013-03-23 22:20:00,
2013-03-23 18:25:00,37.9,18.4,29.47,NW,319,7.1,11.5,45,0.00,CLR,SCT,0.00,WeatherDisplay:10.37,2013-03-23 22:25:00,
2013-03-23 18:30:00,37.8,19.8,29.48,West,279,4.7,5.8,48,0.00,CLR,SCT,0.00,WeatherDisplay:10.37,2013-03-23 22:30:00,
2013-03-23 18:35:00,37.5,19.1,29.48,NW,311,5.1,8.1,47,0.00,CLR,SCT,0.00,WeatherDisplay:10.37,2013-03-23 22:35:00,
2013-03-23 18:40:00,37.4,19.0,29.48,NW,304,3.7,8.0,47,0.00,CLR,SCT,0.00,WeatherDisplay:10.37,2013-03-23 22:40:00,
2013-03-23 18:45:00,37.4,19.0,29.48,NW,315,5.2,10.4,47,0.00,CLR,SCT,0.00,WeatherDisplay:10.37,2013-03-23 22:45:00,
2013-03-23 18:50:00,37.1,19.2,29.48,WNW,293,6.6,8.0,48,0.00,CLR,SCT,0.00,WeatherDisplay:10.37,2013-03-23 22:50:00,
2013-03-23 18:55:00,36.9,18.5,29.48,WNW,296,5.1,6.0,47,0.00,CLR,SCT,0.00,WeatherDisplay:10.37,2013-03-23 22:55:00,
2013-03-23 19:00:00,36.8,17.9,29.48,West,277,4.7,6.9,46,0.00,CLR,SCT,0.00,WeatherDisplay:10.37,2013-03-23 23:00:00,
2013-03-23 19:05:00,36.6,19.2,29.48,NW,314,6.7,12.7,49,0.00,CLR,SCT,0.00,WeatherDisplay:10.37,2013-03-23 23:05:00,
2013-03-23 19:10:00,36.3,18.9,29.49,West,264,5.0,8.1,49,0.00,CLR,SCT,0.00,WeatherDisplay:10.37,2013-03-23 23:10:00,
2013-03-23 19:15:00,36.2,19.3,29.49,West,280,6.4,8.0,50,0.00,CLR,SCT,0.00,WeatherDisplay:10.37,2013-03-23 23:15:00,
2013-03-23 19:20:00,36.0,19.1,29.49,West,266,5.0,8.1,50,0.00,CLR,SCT,0.00,WeatherDisplay:10.37,2013-03-23 23:20:00,
2013-03-23 19:25:00,35.9,18.6,29.49,West,265,5.5,8.1,49,0.00,CLR,SCT,0.00,WeatherDisplay:10.37,2013-03-23 23:25:00,
2013-03-23 19:30:00,36.0,18.7,29.50,West,277,5.7,8.1,49,0.00,CLR,SCT,0.00,WeatherDisplay:10.37,2013-03-23 23:30:00,
2013-03-23 19:35:00,35.7,20.2,29.50,WNW,284,4.5,5.8,53,0.00,CLR,SCT,0.00,WeatherDisplay:10.37,2013-03-23 23:35:00,
2013-03-23 19:40:00,35.7,19.3,29.50,West,270,5.6,8.1,51,0.00,CLR,SCT,0.00,WeatherDisplay:10.37,2013-03-23 23:40:00,
2013-03-23 19:45:00,35.5,19.1,29.50,NW,304,6.9,10.0,51,0.00,CLR,SCT,0.00,WeatherDisplay:10.37,2013-03-23 23:45:00,
2013-03-23 19:50:00,35.4,19.5,29.50,NW,320,4.8,8.1,52,0.00,CLR,SCT,0.00,WeatherDisplay:10.37,2013-03-23 23:50:00,
2013-03-23 19:55:00,35.3,19.4,29.51,NW,326,5.2,9.2,52,0.00,CLR,SCT,0.00,WeatherDisplay:10.37,2013-03-23 23:55:00,
2013-03-23 20:00:00,35.4,18.6,29.51,NW,312,4.0,10.4,50,0.00,CLR,SCT,0.00,WeatherDisplay:10.37,2013-03-24 00:00:00,
2013-03-23 20:05:00,35.4,19.0,29.52,NW,308,4.3,4.6,51,0.00,CLR,SCT,0.00,WeatherDisplay:10.37,2013-03-24 00:05:00,
2013-03-23 20:10:00,35.1,19.2,29.52,West,270,2.1,4.0,52,0.00,CLR,SCT,0.00,WeatherDisplay:10.37,2013-03-24 00:10:00,
2013-03-23 20:15:00,35.0,20.4,29.52,NW,304,1.8,4.6,55,0.00,CLR,SCT,0.00,WeatherDisplay:10.37,2013-03-24 00:15:00,
2013-03-23 20:20:00,34.9,19.5,29.53,NW,304,2.8,3.5,53,0.00,CLR,SCT,0.00,WeatherDisplay:10.37,2013-03-24 00:20:00,
2013-03-23 20:25:00,34.9,19.5,29.52,WSW,250,5.5,9.0,53,0.00,CLR,SCT,0.00,WeatherDisplay:10.37,2013-03-24 00:25:00,
2013-03-23 20:30:00,34.7,18.4,29.52,West,267,8.2,10.4,51,0.00,CLR,SCT,0.00,WeatherDisplay:10.37,2013-03-24 00:30:00,
2013-03-23 20:35:00,34.6,18.3,29.53,NNW,330,6.2,13.0,51,0.00,CLR,SCT,0.00,WeatherDisplay:10.37,2013-03-24 00:35:00,
2013-03-23 20:40:00,34.5,18.2,29.53,NNW,333,5.0,6.9,51,0.00,CLR,SCT,0.00,WeatherDisplay:10.37,2013-03-24 00:40:00,
2013-03-23 20:45:00,34.3,18.5,29.53,WNW,294,3.5,5.8,52,0.00,CLR,SCT,0.00,WeatherDisplay:10.37,2013-03-24 00:45:00,
2013-03-23 20:50:00,34.0,19.1,29.54,NW,317,2.7,3.5,54,0.00,CLR,SCT,0.00,WeatherDisplay:10.37,2013-03-24 00:50:00,
2013-03-23 20:55:00,33.8,18.0,29.55,NW,322,1.8,3.5,52,0.00,CLR,SCT,0.00,WeatherDisplay:10.37,2013-03-24 00:55:00,
2013-03-23 21:00:00,33.7,18.4,29.55,WNW,297,3.7,6.9,53,0.00,CLR,SCT,0.00,WeatherDisplay:10.37,2013-03-24 01:00:00,
2013-03-23 21:05:00,33.6,18.7,29.55,WNW,295,2.9,4.0,54,0.00,CLR,SCT,0.00,WeatherDisplay:10.37,2013-03-24 01:05:00,
2013-03-23 21:10:00,33.3,18.4,29.55,NW,312,2.9,5.0,54,0.00,CLR,SCT,0.00,WeatherDisplay:10.37,2013-03-24 01:10:00,
2013-03-23 21:15:00,33.2,18.8,29.55,WNW,294,5.7,11.5,55,0.00,CLR,SCT,0.00,WeatherDisplay:10.37,2013-03-24 01:15:00,
2013-03-23 21:20:00,33.3,18.4,29.55,NW,306,3.9,6.9,54,0.00,CLR,SCT,0.00,WeatherDisplay:10.37,2013-03-24 01:20:00,
2013-03-23 21:25:00,33.2,18.3,29.55,WNW,300,4.9,6.9,54,0.00,CLR,SCT,0.00,WeatherDisplay:10.37,2013-03-24 01:25:00,
2013-03-23 21:30:00,33.1,18.7,29.55,NW,309,4.8,5.8,55,0.00,CLR,SCT,0.00,WeatherDisplay:10.37,2013-03-24 01:30:00,
2013-03-23 21:35:00,32.9,19.7,29.55,WNW,301,2.5,4.6,58,0.00,CLR,SCT,0.00,WeatherDisplay:10.37,2013-03-24 01:35:00,
2013-03-23 21:40:00,32.6,19.4,29.55,WNW,290,3.1,5.8,58,0.00,CLR,SCT,0.00,WeatherDisplay:10.37,2013-03-24 01:40:00,
2013-03-23 21:45:00,32.5,18.9,29.55,NW,325,6.7,6.7,57,0.00,CLR,SCT,0.00,WeatherDisplay:10.37,2013-03-24 01:45:00,
2013-03-23 21:50:00,32.7,18.7,29.55,WSW,246,8.0,12.7,56,0.00,CLR,SCT,0.00,WeatherDisplay:10.37,2013-03-24 01:50:00,
2013-03-23 21:55:00,32.9,18.5,29.56,NNW,332,4.6,9.0,55,0.00,CLR,SCT,0.00,WeatherDisplay:10.37,2013-03-24 01:55:00,
2013-03-23 22:00:00,32.9,18.5,29.56,NW,313,2.2,8.1,55,0.00,CLR,SCT,0.00,WeatherDisplay:10.37,2013-03-24 02:00:00,
2013-03-23 22:05:00,32.6,19.0,29.56,NW,318,4.2,10.0,57,0.00,CLR,SCT,0.00,WeatherDisplay:10.37,2013-03-24 02:05:00,
2013-03-23 22:10:00,32.5,19.3,29.56,WNW,293,3.2,8.1,58,0.00,CLR,SCT,0.00,WeatherDisplay:10.37,2013-03-24 02:10:00,
2013-03-23 22:15:00,32.5,19.3,29.56,NW,312,4.7,5.8,58,0.00,CLR,SCT,0.00,WeatherDisplay:10.37,2013-03-24 02:15:00,
2013-03-23 22:20:00,32.5,19.3,29.56,NW,304,4.0,5.8,58,0.00,CLR,SCT,0.00,WeatherDisplay:10.37,2013-03-24 02:20:00,
2013-03-23 22:25:00,32.3,20.0,29.56,NW,315,4.0,8.1,60,0.00,CLR,SCT,0.00,WeatherDisplay:10.37,2013-03-24 02:25:00,
2013-03-23 22:30:00,32.1,19.4,29.56,WNW,284,3.2,4.6,59,0.00,CLR,SCT,0.00,WeatherDisplay:10.37,2013-03-24 02:30:00,
2013-03-23 22:35:00,32.0,18.9,29.56,NW,311,5.1,6.0,58,0.00,CLR,SCT,0.00,WeatherDisplay:10.37,2013-03-24 02:35:00,
2013-03-23 22:40:00,31.9,19.2,29.56,WNW,286,3.7,6.0,59,0.00,CLR,SCT,0.00,WeatherDisplay:10.37,2013-03-24 02:40:00,
2013-03-23 22:45:00,31.7,19.8,29.56,North,360,2.8,4.6,61,0.00,CLR,SCT,0.00,WeatherDisplay:10.37,2013-03-24 02:45:00,
2013-03-23 22:50:00,31.3,19.4,29.56,North,355,4.6,6.9,61,0.00,CLR,SCT,0.00,WeatherDisplay:10.37,2013-03-24 02:50:00,
2013-03-23 22:55:00,31.4,18.7,29.56,WNW,288,3.5,5.8,59,0.00,CLR,SCT,0.00,WeatherDisplay:10.37,2013-03-24 02:55:00,
2013-03-23 23:00:00,31.4,19.1,29.56,WNW,293,5.8,10.4,60,0.00,CLR,SCT,0.00,WeatherDisplay:10.37,2013-03-24 03:00:00,
2013-03-23 23:05:00,31.4,18.7,29.56,NNW,328,4.6,6.9,59,0.00,CLR,SCT,0.00,WeatherDisplay:10.37,2013-03-24 03:05:00,
2013-03-23 23:10:00,31.3,18.6,29.56,West,269,2.7,6.9,59,0.00,CLR,SCT,0.00,WeatherDisplay:10.37,2013-03-24 03:10:00,
2013-03-23 23:15:00,31.2,18.1,29.56,West,266,4.0,6.9,58,0.00,CLR,SCT,0.00,WeatherDisplay:10.37,2013-03-24 03:15:00,
2013-03-23 23:20:00,31.3,18.6,29.56,NW,307,2.7,4.6,59,0.00,CLR,SCT,0.00,WeatherDisplay:10.37,2013-03-24 03:20:00,
2013-03-23 23:25:00,31.1,18.0,29.56,West,280,3.5,6.9,58,0.00,CLR,SCT,0.00,WeatherDisplay:10.37,2013-03-24 03:25:00,
2013-03-23 23:30:00,31.0,18.3,29.56,WNW,298,4.4,6.0,59,0.00,CLR,SCT,0.00,WeatherDisplay:10.37,2013-03-24 03:30:00,
2013-03-23 23:35:00,30.8,18.1,29.56,West,280,4.5,5.8,59,0.00,CLR,SCT,0.00,WeatherDisplay:10.37,2013-03-24 03:35:00,
2013-03-23 23:40:00,30.8,18.1,29.56,WNW,293,2.5,5.8,59,0.00,CLR,SCT,0.00,WeatherDisplay:10.37,2013-03-24 03:40:00,
2013-03-23 23:45:00,30.7,17.7,29.56,NW,306,1.6,6.9,58,0.00,CLR,SCT,0.00,WeatherDisplay:10.37,2013-03-24 03:45:00,
2013-03-23 23:50:00,30.6,18.0,29.56,West,281,3.3,5.0,59,0.00,CLR,SCT,0.00,WeatherDisplay:10.37,2013-03-24 03:50:00,
2013-03-23 23:55:00,30.6,18.3,29.57,West,260,1.5,3.0,60,0.00,CLR,SCT,0.00,WeatherDisplay:10.37,2013-03-24 03:55:00,